This is the latest recevied weather packets stored in our database for station/object K7AEL. If no packets are shown the sender has not sent any weather packets the latest 10 day(s).
| Time | Temp. | Humidity | Pressure | Rain* | Wind** | Luminosity | Snow |
|---|---|---|---|---|---|---|---|
| 1777146171 | 27.22° C | 16% | 1011.3 hPa | 0 mm | - | 386 W/m² | - |
| 1777145867 | 27.78° C | 16% | 1011.3 hPa | 0 mm | - | 383 W/m² | - |
| 1777145563 | 27.22° C | 16% | 1011.2 hPa | 0 mm | - | 344 W/m² | - |
| 1777145258 | 27.22° C | 16% | 1011.3 hPa | 0 mm | - | 366 W/m² | - |
| 1777144954 | 27.22° C | 16% | 1011.2 hPa | 0 mm | - | 373 W/m² | - |
| 1777144652 | 27.22° C | 17% | 1011.3 hPa | 0 mm | - | 376 W/m² | - |
| 1777144348 | 26.67° C | 17% | 1011.3 hPa | 0 mm | - | 340 W/m² | - |
| 1777144045 | 27.22° C | 17% | 1011.3 hPa | 0 mm | - | 346 W/m² | - |
| 1777143741 | 27.78° C | 16% | 1011.3 hPa | 0 mm | - | 341 W/m² | - |
| 1777143438 | 28.33° C | 14% | 1011.2 hPa | 0 mm | - | 338 W/m² | - |
| 1777143134 | 27.78° C | 14% | 1011.3 hPa | 0 mm | - | 344 W/m² | - |
| 1777142829 | 27.78° C | 14% | 1011.6 hPa | 0 mm | - | 388 W/m² | - |
| 1777142526 | 28.33° C | 14% | 1011.6 hPa | 0 mm | - | 408 W/m² | - |
| 1777142225 | 28.33° C | 14% | 1011.6 hPa | 0 mm | - | 423 W/m² | - |
| 1777141922 | 28.33° C | 14% | 1011.6 hPa | 0 mm | - | 406 W/m² | - |
| 1777141619 | 27.78° C | 16% | 1011.7 hPa | 0 mm | - | 432 W/m² | - |
| 1777141318 | 27.78° C | 16% | 1011.6 hPa | 0 mm | - | 392 W/m² | - |
| 1777141014 | 27.22° C | 17% | 1011.7 hPa | 0 mm | - | 374 W/m² | - |
| 1777140711 | 27.22° C | 18% | 1011.7 hPa | 0 mm | - | 392 W/m² | - |
| 1777140407 | 26.67° C | 19% | 1011.6 hPa | 0 mm | - | 437 W/m² | - |
* Rain latest hour (hover to see other rain measurements)
** Current wind speed in m/s (hover to see current wind gust speed)